Charleston, SC

12:41 AM EDT on October 20, 2017 (GMT -0400)
Charleston Executive

Weather History for KJZI - October, 2012

Change the Weather History Date:

Monday, October 8, 2012

  Actual Average (KCHS) Record (KCHS)
Temperature  
Mean Temperature 65 °F -  
Max Temperature 75 °F 78 °F 90 °F (1962)
Min Temperature 55 °F 58 °F 41 °F (1938)
Growing Degree Days 15 (Base 50)    
Moisture  
Dew Point 60 °F    
Average Humidity 86    
Maximum Humidity 100    
Minimum Humidity 73    
Precipitation  
Precipitation 0.25 in - - ()
Sea Level Pressure  
Sea Level Pressure 30.05 in    
Wind  
Wind Speed 10 mph (North)    
Max Wind Speed 14 mph    
Max Gust Speed 22 mph    
Visibility 7 miles    
Events Rain , Thunderstorm    
Averages and records for this station are not official NWS values.
T = Trace of Precipitation, MM = Missing Value Source: NWS Daily Summary

Daily Weather History Graph

Daily Weather History Graph

Search for Another Location

Airport or City:

Trip Planner

Search our weather history database for the weather conditions in past years. The results will help you decide how hot, cold, wet, or windy it might be!

Date:

Astronomy

Oct. 08, 2012 Rise Set
Actual Time 7:19 AM EDT 6:54 PM EDT
Civil Twilight 6:54 AM EDT 7:19 PM EDT
Nautical Twilight 6:26 AM EDT 7:48 PM EDT
Astronomical Twilight 5:57 AM EDT 8:16 PM EDT
Moon 12:18 AM EDT (10/8) 2:23 PM EDT (10/8)
Length of Visible Light 12h 25m
Length of Day
11h 35m
Waning Gibbous, 46% of the Moon is Illuminated
Oct 8
Waning Gibbous
Oct 15
New
Oct 21
First Quarter
Oct 29
Full
Nov 6
Last Quarter

Hourly Weather History & Observations

Time (EDT) Temp. Dew Point Humidity Pressure Visibility Wind Dir Wind Speed Gust Speed Precip Events Conditions
12:15 AM 75.2 °F 71.6 °F 89% 30.02 in 9.0 mi NNW 11.5 mph 17.3 mph 0.00 in   Mostly Cloudy
12:35 AM 73.4 °F 64.4 °F 73% 30.03 in 9.0 mi North 10.4 mph 17.3 mph 0.00 in   Overcast
12:55 AM 71.6 °F 64.4 °F 78% 30.03 in 9.0 mi North 12.7 mph - 0.00 in   Overcast
1:15 AM 69.8 °F 64.4 °F 83% 30.03 in 9.0 mi NNE 13.8 mph - 0.00 in   Overcast
1:35 AM 66.2 °F 62.6 °F 88% 30.04 in 5.0 mi North 10.4 mph - 0.00 in Thunderstorm Unknown
1:55 AM 66.2 °F 62.6 °F 88% 30.04 in 8.0 mi North 12.7 mph 18.4 mph 0.00 in   Overcast
2:15 AM 64.4 °F 60.8 °F 88% 30.05 in 5.0 mi North 10.4 mph - 0.00 in   Overcast
2:35 AM 64.4 °F 60.8 °F 88% 30.04 in 7.0 mi NNE 11.5 mph - 0.00 in Rain Light Rain
2:55 AM 64.4 °F 60.8 °F 88% 30.04 in 7.0 mi North 9.2 mph - 0.00 in   Mostly Cloudy
3:15 AM 64.4 °F 60.8 °F 88% 30.02 in 7.0 mi NNE 11.5 mph - 0.00 in   Overcast
3:35 AM 64.4 °F 60.8 °F 88% 30.03 in 8.0 mi North 11.5 mph - 0.00 in   Mostly Cloudy
3:55 AM 64.4 °F 60.8 °F 88% 30.03 in 9.0 mi North 11.5 mph - 0.00 in   Mostly Cloudy
4:15 AM 64.4 °F 59.0 °F 83% 30.03 in 8.0 mi North 10.4 mph - 0.00 in   Mostly Cloudy
4:35 AM 62.6 °F 59.0 °F 88% 30.03 in 8.0 mi North 11.5 mph - 0.00 in Thunderstorm Light Drizzle
4:55 AM 62.6 °F 59.0 °F 88% 30.05 in 7.0 mi North 9.2 mph - 0.00 in   Light Drizzle
5:15 AM 62.6 °F 59.0 °F 88% 30.05 in 5.0 mi North 9.2 mph - 0.00 in Rain Light Rain
5:35 AM 62.6 °F 59.0 °F 88% 30.04 in 10.0 mi NNE 10.4 mph - 0.01 in   Mostly Cloudy
5:55 AM 62.6 °F 59.0 °F 88% 30.04 in 10.0 mi NNE 9.2 mph - 0.01 in   Mostly Cloudy
6:15 AM 62.6 °F 59.0 °F 88% 30.05 in 9.0 mi North 10.4 mph - 0.00 in   Overcast
6:35 AM 62.6 °F 59.0 °F 88% 30.06 in 9.0 mi NNE 10.4 mph - 0.00 in   Overcast
6:55 AM 62.6 °F 59.0 °F 88% 30.07 in 9.0 mi NNE 8.1 mph - 0.00 in   Overcast
7:15 AM 62.6 °F 59.0 °F 88% 30.06 in 7.0 mi NNE 9.2 mph - 0.00 in   Overcast
7:35 AM 62.6 °F 60.8 °F 94% 30.07 in 7.0 mi NNE 9.2 mph - 0.00 in   Overcast
7:55 AM 64.4 °F 60.8 °F 88% 30.07 in 5.0 mi NNE 9.2 mph - 0.00 in   Overcast
8:15 AM 64.4 °F 60.8 °F 88% 30.07 in 5.0 mi North 8.1 mph - 0.00 in   Overcast
8:35 AM 62.6 °F 59.0 °F 88% 30.08 in 6.0 mi North 10.4 mph - 0.00 in   Overcast
8:55 AM 62.6 °F 59.0 °F 88% 30.10 in 5.0 mi North 8.1 mph - 0.00 in   Overcast
9:15 AM 62.6 °F 59.0 °F 88% 30.10 in 5.0 mi North 11.5 mph - 0.00 in   Overcast
9:35 AM 64.4 °F 60.8 °F 88% 30.09 in 5.0 mi NNE 12.7 mph - 0.00 in   Overcast
9:55 AM 64.4 °F 60.8 °F 88% 30.09 in 5.0 mi NNE 8.1 mph - 0.00 in   Haze
10:15 AM 66.2 °F 60.8 °F 83% 30.09 in 6.0 mi NE 8.1 mph - 0.00 in   Haze
10:35 AM 68.0 °F 62.6 °F 83% 30.08 in 6.0 mi NNE 8.1 mph - 0.00 in   Haze
10:55 AM 69.8 °F 62.6 °F 78% 30.08 in 6.0 mi NNE 9.2 mph - 0.00 in   Haze
11:15 AM 69.8 °F 62.6 °F 78% 30.08 in 7.0 mi NNE 9.2 mph - 0.00 in   Overcast
11:35 AM 71.6 °F 62.6 °F 73% 30.07 in 6.0 mi NNE 8.1 mph - 0.00 in   Haze
11:55 AM 71.6 °F 62.6 °F 73% 30.07 in 8.0 mi North 8.1 mph - 0.00 in   Overcast
12:15 PM 71.6 °F 62.6 °F 73% 30.07 in 7.0 mi North 8.1 mph - 0.00 in   Overcast
12:35 PM 69.8 °F 62.6 °F 78% 30.07 in 7.0 mi NNW 6.9 mph - 0.00 in   Overcast
12:55 PM 69.8 °F 62.6 °F 78% 30.07 in 6.0 mi NNW 9.2 mph - 0.00 in   Haze
1:15 PM 69.8 °F 62.6 °F 78% 30.06 in 5.0 mi North 6.9 mph - 0.00 in   Haze
1:35 PM 69.8 °F 62.6 °F 78% 30.05 in 5.0 mi North 9.2 mph - 0.00 in   Haze
1:55 PM 69.8 °F 62.6 °F 78% 30.04 in 5.0 mi North 8.1 mph - 0.00 in   Haze
2:15 PM 69.8 °F 62.6 °F 78% 30.02 in 5.0 mi North 8.1 mph - 0.00 in   Haze
2:35 PM 69.8 °F 62.6 °F 78% 30.01 in 6.0 mi North 10.4 mph - 0.00 in   Haze
2:55 PM 71.6 °F 62.6 °F 73% 30.01 in 6.0 mi North 9.2 mph - 0.00 in   Haze
3:15 PM 71.6 °F 62.6 °F 73% 30.01 in 6.0 mi North 9.2 mph - 0.00 in   Haze
3:35 PM 69.8 °F 62.6 °F 78% 30.01 in 5.0 mi North 8.1 mph - 0.00 in   Haze
3:55 PM 68.0 °F 62.6 °F 83% 30.01 in 5.0 mi North 9.2 mph - 0.00 in   Haze
4:15 PM 66.2 °F 60.8 °F 83% 30.01 in 5.0 mi NNW 10.4 mph - 0.00 in   Haze
4:35 PM 66.2 °F 60.8 °F 83% 30.01 in 5.0 mi NNW 10.4 mph - 0.00 in   Haze
4:55 PM 64.4 °F 60.8 °F 88% 30.01 in 5.0 mi NNW 10.4 mph - 0.00 in   Overcast
5:15 PM 62.6 °F 59.0 °F 88% 30.03 in 5.0 mi NNW 13.8 mph - 0.00 in Rain Light Rain
5:35 PM 60.8 °F 59.0 °F 94% 30.04 in 4.0 mi NW 13.8 mph - 0.00 in   Overcast
5:55 PM 60.8 °F 57.2 °F 88% 30.02 in 7.0 mi North 13.8 mph 18.4 mph 0.00 in   Overcast
6:15 PM 60.8 °F 57.2 °F 88% 30.03 in 10.0 mi North 11.5 mph - 0.00 in   Overcast
6:35 PM 60.8 °F 57.2 °F 88% 30.02 in 2.5 mi North 10.4 mph 16.1 mph 0.00 in   Overcast
6:55 PM 60.8 °F 57.2 °F 88% 30.06 in 3.0 mi WNW 9.2 mph - 0.07 in Rain Heavy Rain
7:15 PM 59.0 °F 57.2 °F 94% 30.06 in 1.8 mi NNW 9.2 mph - 0.14 in Rain Heavy Rain
7:35 PM 59.0 °F 57.2 °F 94% 30.06 in 3.0 mi NNW 8.1 mph - 0.16 in Rain Light Rain
7:55 PM 59.0 °F 57.2 °F 94% 30.06 in 9.0 mi NNW 11.5 mph - 0.17 in Thunderstorm Overcast
8:15 PM 59.0 °F 57.2 °F 94% 30.07 in 10.0 mi North 6.9 mph 17.3 mph 0.00 in   Overcast
8:35 PM 57.2 °F 57.2 °F 100% 30.07 in 10.0 mi North 9.2 mph - 0.00 in   Overcast
8:55 PM 57.2 °F 55.4 °F 94% 30.07 in 10.0 mi North 11.5 mph 18.4 mph 0.00 in   Overcast
9:15 PM 57.2 °F 55.4 °F 94% 30.07 in 10.0 mi NNW 12.7 mph 18.4 mph 0.00 in   Overcast
9:35 PM 55.4 °F 53.6 °F 94% 30.08 in 10.0 mi North 13.8 mph - 0.00 in   Overcast
9:55 PM 55.4 °F 53.6 °F 94% 30.08 in 10.0 mi North 10.4 mph - 0.00 in   Overcast
10:15 PM 55.4 °F 53.6 °F 94% 30.08 in 10.0 mi NNW 12.7 mph - 0.00 in   Overcast
10:35 PM 55.4 °F 53.6 °F 94% 30.09 in 10.0 mi NNW 12.7 mph 21.9 mph 0.00 in   Overcast
10:55 PM 55.4 °F 53.6 °F 94% 30.10 in 10.0 mi North 10.4 mph - 0.00 in   Overcast
11:15 PM 55.4 °F 53.6 °F 94% 30.09 in 10.0 mi North 9.2 mph - 0.00 in   Overcast
11:55 PM 55.4 °F 53.6 °F 94% 30.09 in 10.0 mi NNW 9.2 mph - 0.00 in   Overcast